ON7SD-5 Weather Reports


time (UTC)temp
C
wind
direction
speed
KPH
gust
KPH
rain 1hr
cm
rain 24hr
cm
rain mn
cm
humidity
%
barometer
mb
20190421141529 23 197 3.2 8.0 0.00 0.00 0.00 28 1016.7
20190421141029 23 169 3.2 8.0 0.00 0.00 0.00 27 1016.7
20190421140529 23 110 4.8 9.7 0.00 0.00 0.00 30 1016.9
20190421140029 23 102 6.4 9.7 0.00 0.00 0.00 31 1016.9
20190421135529 23 115 6.4 12.9 0.00 0.00 0.00 30 1017.0
20190421135029 23 100 6.4 11.3 0.00 0.00 0.00 26 1017.1
20190421134529 23 112 4.8 14.5 0.00 0.00 0.00 27 1017.1
20190421134031 24 78 1.6 11.3 0.00 0.00 0.00 30 1017.1
20190421133529 23 92 3.2 8.0 0.00 0.00 0.00 29 1017.2
20190421133031 23 194 4.8 11.3 0.00 0.00 0.00 27 1017.3
20190421132529 23 258 3.2 8.0 0.00 0.00 0.00 35 1017.3
20190421132030 23 105 3.2 8.0 0.00 0.00 0.00 32 1017.3
20190421131529 23 342 3.2 6.4 0.00 0.00 0.00 30 1017.4
20190421131030 23 349 3.2 6.4 0.00 0.00 0.00 28 1017.6
20190421130530 23 0 3.2 8.0 0.00 0.00 0.00 29 1017.6
20190421130029 23 135 4.8 6.4 0.00 0.00 0.00 33 1017.7
20190421125530 23 68 4.8 16.1 0.00 0.00 0.00 30 1017.7
20190421125029 23 108 3.2 12.9 0.00 0.00 0.00 31 1017.8
20190421124529 23 57 3.2 4.8 0.00 0.00 0.00 33 1017.9
20190421124029 23 175 3.2 9.7 0.00 0.00 0.00 32 1018.0
20190421123530 23 1 3.2 6.4 0.00 0.00 0.00 33 1018.1
20190421123030 23 345 3.2 8.0 0.00 0.00 0.00 33 1018.2
20190421122530 22 74 4.8 8.0 0.00 0.00 0.00 34 1018.2
20190421122030 22 103 4.8 12.9 0.00 0.00 0.00 35 1018.3
20190421121530 22 118 4.8 12.9 0.00 0.00 0.00 36 1018.4
20190421121030 23 109 4.8 8.0 0.00 0.00 0.00 36 1018.5
20190421120530 22 8 4.8 11.3 0.00 0.00 0.00 35 1018.6
20190421120030 22 103 4.8 9.7 0.00 0.00 0.00 35 1018.6
20190421115530 22 332 4.8 12.9 0.00 0.00 0.00 37 1018.7
20190421115030 22 111 3.2 9.7 0.00 0.00 0.00 36 1018.8
20190421114530 22 295 4.8 9.7 0.00 0.00 0.00 38 1018.8
20190421114030 22 0 4.8 14.5 0.00 0.00 0.00 38 1018.9
20190421113530 23 186 1.6 8.0 0.00 0.00 0.00 39 1018.9
20190421113030 22 25 3.2 8.0 0.00 0.00 0.00 38 1018.9
20190421112530 22 98 4.8 9.7 0.00 0.00 0.00 38 1019.0
20190421112030 22 340 3.2 8.0 0.00 0.00 0.00 36 1019.0
20190421111530 22 32 3.2 9.7 0.00 0.00 0.00 38 1019.1
20190421111030 22 5 3.2 14.5 0.00 0.00 0.00 35 1019.2
20190421110530 22 356 3.2 9.7 0.00 0.00 0.00 34 1019.2
20190421110030 22 0 3.2 8.0 0.00 0.00 0.00 37 1019.3
20190421105530 22 255 4.8 11.3 0.00 0.00 0.00 34 1019.3
20190421105030 22 148 4.8 14.5 0.00 0.00 0.00 36 1019.4
20190421104530 22 141 3.2 12.9 0.00 0.00 0.00 35 1019.5
20190421104030 22 205 3.2 8.0 0.00 0.00 0.00 34 1019.5
20190421103530 22 105 3.2 9.7 0.00 0.00 0.00 37 1019.6
20190421103030 21 1 4.8 9.7 0.00 0.00 0.00 34 1019.6
20190421102530 21 42 4.8 8.0 0.00 0.00 0.00 35 1019.7
20190421102030 21 84 3.2 11.3 0.00 0.00 0.00 37 1019.8
20190421101530 21 1 3.2 6.4 0.00 0.00 0.00 36 1019.8
20190421101030 21 352 3.2 12.9 0.00 0.00 0.00 37 1019.9
20190421100530 21 101 3.2 9.7 0.00 0.00 0.00 37 1020.0
20190421100030 21 332 3.2 4.8 0.00 0.00 0.00 40 1020.0
20190421095530 20 4 3.2 12.9 0.00 0.00 0.00 36 1020.1
20190421095031 20 0 3.2 11.3 0.00 0.00 0.00 39 1020.2
20190421094530 20 333 3.2 6.4 0.00 0.00 0.00 39 1020.2
20190421094030 20 172 3.2 6.4 0.00 0.00 0.00 37 1020.3
20190421093530 20 68 3.2 8.0 0.00 0.00 0.00 39 1020.4
20190421093030 19 25 1.6 6.4 0.00 0.00 0.00 39 1020.5
20190421092530 19 155 1.6 4.8 0.00 0.00 0.00 42 1020.5
20190421092030 19 341 1.6 8.0 0.00 0.00 0.00 40 1020.6
20190421091530 18 7 1.6 6.4 0.00 0.00 0.00 39 1020.7
20190421091030 18 96 3.2 6.4 0.00 0.00 0.00 41 1020.8
20190421090530 18 19 3.2 6.4 0.00 0.00 0.00 44 1020.8
20190421090030 18 12 3.2 9.7 0.00 0.00 0.00 41 1020.8
20190421085530 18 1 1.6 6.4 0.00 0.00 0.00 42 1020.8
20190421085030 18 19 1.6 8.0 0.00 0.00 0.00 42 1020.9
20190421084530 18 56 1.6 6.4 0.00 0.00 0.00 43 1021.0
20190421084030 18 37 1.6 4.8 0.00 0.00 0.00 43 1021.0
20190421083530 17 5 1.6 6.4 0.00 0.00 0.00 45 1021.0
20190421083031 17 359 1.6 6.4 0.00 0.00 0.00 45 1021.0
20190421082530 17 20 1.6 4.8 0.00 0.00 0.00 44 1021.1
20190421082030 17 4 1.6 4.8 0.00 0.00 0.00 44 1021.2
20190421081530 16 15 1.6 4.8 0.00 0.00 0.00 47 1021.2
20190421081030 15 1 1.6 6.4 0.00 0.00 0.00 46 1021.2
20190421080530 15 1 1.6 6.4 0.00 0.00 0.00 45 1021.2
20190421080030 15 1 1.6 4.8 0.00 0.00 0.00 47 1021.2
20190421075530 15 6 1.6 6.4 0.00 0.00 0.00 48 1021.3
20190421075030 15 0 1.6 4.8 0.00 0.00 0.00 45 1021.4
20190421074530 15 0 1.6 4.8 0.00 0.00 0.00 45 1021.4
20190421074030 15 19 1.6 4.8 0.00 0.00 0.00 46 1021.4
20190421073530 15 328 1.6 3.2 0.00 0.00 0.00 49 1021.4
20190421073030 15 77 1.6 4.8 0.00 0.00 0.00 47 1021.4
20190421072530 15 77 1.6 3.2 0.00 0.00 0.00 47 1021.5
20190421072030 14 82 1.6 4.8 0.00 0.00 0.00 47 1021.5
20190421071530 14 178 3.2 4.8 0.00 0.00 0.00 48 1021.6
20190421071030 14 96 3.2 11.3 0.00 0.00 0.00 47 1021.6
20190421070532 13 359 1.6 3.2 0.00 0.00 0.00 48 1021.6
20190421070033 13 4 1.6 6.4 0.00 0.00 0.00 49 1021.7
20190421065530 13 1 1.6 6.4 0.00 0.00 0.00 49 1021.7
20190421065030 13 82 1.6 3.2 0.00 0.00 0.00 50 1021.7
20190421064530 13 344 1.6 3.2 0.00 0.00 0.00 50 1021.8
20190421064030 13 123 1.6 4.8 0.00 0.00 0.00 51 1021.8
20190421063530 12 1 0.0 3.2 0.00 0.00 0.00 52 1021.8
20190421063030 12 153 0.0 4.8 0.00 0.00 0.00 53 1021.8
20190421062530 12 34 0.0 0.0 0.00 0.00 0.00 55 1021.7
20190421062030 12 15 0.0 0.0 0.00 0.00 0.00 56 1021.7
20190421061530 11 15 0.0 0.0 0.00 0.00 0.00 57 1021.8
20190421061030 11 15 0.0 0.0 0.00 0.00 0.00 57 1021.8
20190421060530 11 15 0.0 0.0 0.00 0.00 0.00 58 1021.8
20190421060030 10 15 0.0 0.0 0.00 0.00 0.00 58 1021.8
20190421055615 10 15 0.0 0.0 0.00 0.00 0.00 59 1021.8
20190421055030 10 15 0.0 0.0 0.00 0.00 0.00 59 1021.8
20190421054530 10 15 0.0 0.0 0.00 0.00 0.00 60 1021.8
20190421054030 10 15 0.0 0.0 0.00 0.00 0.00 60 1021.8
20190421053531 10 15 0.0 0.0 0.00 0.00 0.00 60 1021.9
20190421053030 10 14 0.0 0.0 0.00 0.00 0.00 60 1021.9
20190421052530 10 15 0.0 0.0 0.00 0.00 0.00 61 1021.8
20190421052030 10 15 0.0 0.0 0.00 0.00 0.00 61 1021.8
20190421051530 10 15 0.0 0.0 0.00 0.00 0.00 62 1021.9
20190421051030 10 14 0.0 0.0 0.00 0.00 0.00 62 1021.9
20190421050530 10 15 0.0 0.0 0.00 0.00 0.00 62 1021.8
20190421050030 10 15 0.0 0.0 0.00 0.00 0.00 62 1021.9
20190421045530 10 15 0.0 0.0 0.00 0.00 0.00 62 1021.9
20190421045030 10 15 0.0 0.0 0.00 0.00 0.00 62 1021.9
20190421044530 10 15 0.0 0.0 0.00 0.00 0.00 61 1021.9
20190421044030 10 14 0.0 0.0 0.00 0.00 0.00 61 1021.9
20190421043530 10 14 0.0 0.0 0.00 0.00 0.00 62 1021.9
20190421043030 10 15 0.0 0.0 0.00 0.00 0.00 61 1022.0
20190421042530 10 15 0.0 0.0 0.00 0.00 0.00 61 1022.0
20190421042030 10 14 0.0 0.0 0.00 0.00 0.00 61 1022.0
20190421041530 10 14 0.0 0.0 0.00 0.00 0.00 61 1022.1
20190421041030 10 14 1.6 0.0 0.00 0.00 0.00 62 1022.1
20190421040530 10 15 1.6 3.2 0.00 0.00 0.00 62 1022.1
20190421040030 10 15 0.0 3.2 0.00 0.00 0.00 63 1022.2
20190421035530 10 14 0.0 0.0 0.00 0.00 0.00 62 1022.2
20190421035030 10 14 0.0 0.0 0.00 0.00 0.00 63 1022.2
20190421034530 10 14 0.0 0.0 0.00 0.00 0.00 63 1022.2
20190421034030 10 15 1.6 0.0 0.00 0.00 0.00 62 1022.3
20190421033530 10 15 1.6 3.2 0.00 0.00 0.00 62 1022.4
20190421033030 10 15 1.6 4.8 0.00 0.00 0.00 62 1022.4
20190421032530 10 15 1.6 3.2 0.00 0.00 0.00 62 1022.4
20190421032030 10 14 0.0 0.0 0.00 0.00 0.00 62 1022.4
20190421031530 11 14 0.0 0.0 0.00 0.00 0.00 61 1022.4
20190421031030 11 15 0.0 0.0 0.00 0.00 0.00 60 1022.5
20190421030530 11 15 0.0 0.0 0.00 0.00 0.00 60 1022.6
20190421030030 11 14 1.6 3.2 0.00 0.00 0.00 59 1022.6
20190421025530 11 15 3.2 3.2 0.00 0.00 0.00 58 1022.7
20190421025030 11 15 3.2 4.8 0.00 0.00 0.00 58 1022.8
20190421024530 11 14 3.2 4.8 0.00 0.00 0.00 59 1022.8
20190421024030 11 15 1.6 4.8 0.00 0.00 0.00 60 1022.8
20190421023530 11 15 0.0 6.4 0.00 0.00 0.00 62 1022.9
20190421023030 10 14 0.0 0.0 0.00 0.00 0.00 64 1022.9
20190421022530 10 14 0.0 0.0 0.00 0.00 0.00 64 1022.9
20190421022030 10 15 0.0 0.0 0.00 0.00 0.00 65 1023.0
20190421021530 10 14 0.0 0.0 0.00 0.00 0.00 65 1023.0
20190421021030 10 15 0.0 0.0 0.00 0.00 0.00 65 1023.1
20190421020530 10 14 0.0 0.0 0.00 0.00 0.00 65 1023.2
20190421020044 11 15 0.0 0.0 0.00 0.00 0.00 64 1023.2
20190421015530 11 15 0.0 3.2 0.00 0.00 0.00 63 1023.3
20190421015030 11 15 0.0 3.2 0.00 0.00 0.00 64 1023.4
20190421014530 10 15 0.0 0.0 0.00 0.00 0.00 66 1023.3
20190421014030 10 15 0.0 0.0 0.00 0.00 0.00 67 1023.3
20190421013530 10 15 0.0 0.0 0.00 0.00 0.00 67 1023.4
20190421013030 10 14 0.0 0.0 0.00 0.00 0.00 67 1023.3
20190421012530 10 14 0.0 0.0 0.00 0.00 0.00 66 1023.4
20190421012030 10 14 0.0 0.0 0.00 0.00 0.00 66 1023.6
20190421011530 11 15 0.0 0.0 0.00 0.00 0.00 65 1023.5
20190421011030 11 15 0.0 0.0 0.00 0.00 0.00 66 1023.6
20190421010530 11 15 0.0 0.0 0.00 0.00 0.00 66 1023.6
20190421010030 10 15 1.6 3.2 0.00 0.00 0.00 66 1023.6
20190421005530 10 15 1.6 3.2 0.00 0.00 0.00 67 1023.6
20190421005030 10 15 0.0 3.2 0.00 0.00 0.00 67 1023.6
20190421004531 10 14 0.0 0.0 0.00 0.00 0.00 64 1023.6
20190421004030 11 14 0.0 0.0 0.00 0.00 0.00 61 1023.7
20190421003530 12 15 0.0 0.0 0.00 0.00 0.00 59 1023.7
20190421003031 12 15 0.0 1.6 0.00 0.00 0.00 57 1023.7
20190421002531 13 15 0.0 1.6 0.00 0.00 0.00 55 1023.8
20190421002031 13 15 0.0 3.2 0.00 0.00 0.00 55 1023.8
20190421001531 13 14 0.0 1.6 0.00 0.00 0.00 54 1023.9
20190421001031 13 14 1.6 3.2 0.00 0.00 0.00 54 1023.9
20190421000554 13 14 1.6 3.2 0.00 0.00 0.00 53 1024.0
20190421000031 13 14 1.6 4.8 0.00 0.00 0.00 53 1024.1
20190420235531 13 14 0.0 4.8 0.00 0.00 0.00 52 1024.1
20190420235031 14 26 0.0 1.6 0.00 0.00 0.00 52 1024.2
20190420234531 14 26 1.6 4.8 0.00 0.00 0.00 52 1024.2
20190420234031 13 32 1.6 3.2 0.00 0.00 0.00 53 1024.3
20190420233531 13 88 1.6 4.8 0.00 0.00 0.00 55 1024.3
20190420233031 12 0 1.6 4.8 0.00 0.00 0.00 57 1024.4
20190420232531 12 2 1.6 3.2 0.00 0.00 0.00 61 1024.4
20190420232031 11 15 0.0 6.4 0.00 0.00 0.00 63 1024.4
20190420231531 11 9 0.0 1.6 0.00 0.00 0.00 64 1024.4
20190420231031 11 9 0.0 0.0 0.00 0.00 0.00 62 1024.5
20190420230531 11 9 0.0 0.0 0.00 0.00 0.00 61 1024.5
20190420230031 12 9 0.0 0.0 0.00 0.00 0.00 60 1024.6
20190420225531 12 9 0.0 0.0 0.00 0.00 0.00 59 1024.6
20190420225031 12 9 0.0 0.0 0.00 0.00 0.00 58 1024.6
20190420224531 12 9 0.0 0.0 0.00 0.00 0.00 58 1024.5
20190420224031 12 9 0.0 0.0 0.00 0.00 0.00 58 1024.5
20190420223531 12 9 0.0 0.0 0.00 0.00 0.00 58 1024.6
20190420223031 12 9 0.0 0.0 0.00 0.00 0.00 57 1024.6
20190420222531 12 9 0.0 0.0 0.00 0.00 0.00 57 1024.6
20190420222031 12 9 0.0 0.0 0.00 0.00 0.00 57 1024.7
20190420221531 12 9 0.0 0.0 0.00 0.00 0.00 56 1024.8
20190420221031 13 9 0.0 0.0 0.00 0.00 0.00 55 1024.8
20190420220531 13 9 0.0 0.0 0.00 0.00 0.00 54 1024.9
20190420220031 13 9 0.0 0.0 0.00 0.00 0.00 54 1024.9
20190420215531 13 9 0.0 0.0 0.00 0.00 0.00 53 1024.9
20190420215031 13 9 0.0 0.0 0.00 0.00 0.00 53 1024.9
20190420214531 13 9 0.0 0.0 0.00 0.00 0.00 52 1025.0
20190420214031 14 9 0.0 0.0 0.00 0.00 0.00 52 1024.9
20190420213531 14 9 0.0 3.2 0.00 0.00 0.00 51 1024.9
20190420213031 14 9 0.0 0.0 0.00 0.00 0.00 51 1024.9
20190420212531 14 9 0.0 0.0 0.00 0.00 0.00 51 1024.9
20190420212031 14 9 0.0 1.6 0.00 0.00 0.00 50 1025.0
20190420211531 14 9 0.0 3.2 0.00 0.00 0.00 50 1025.0
20190420211031 15 9 0.0 3.2 0.00 0.00 0.00 49 1025.0
20190420210531 15 9 1.6 3.2 0.00 0.00 0.00 48 1025.0
20190420210031 15 9 1.6 4.8 0.00 0.00 0.00 48 1025.0
20190420205531 15 9 0.0 4.8 0.00 0.00 0.00 48 1025.0
20190420205031 15 9 0.0 1.6 0.00 0.00 0.00 47 1025.1
20190420204531 15 9 1.6 3.2 0.00 0.00 0.00 47 1025.1
20190420204031 15 9 1.6 6.4 0.00 0.00 0.00 46 1025.1
20190420203531 16 23 1.6 4.8 0.00 0.00 0.00 46 1025.1
20190420203031 16 8 1.6 6.4 0.00 0.00 0.00 46 1025.1
20190420202531 16 359 1.6 4.8 0.00 0.00 0.00 46 1025.0
20190420202031 16 0 3.2 6.4 0.00 0.00 0.00 45 1025.0
20190420201531 16 0 3.2 6.4 0.00 0.00 0.00 45 1025.1
20190420201031 16 359 3.2 8.0 0.00 0.00 0.00 44 1025.1
20190420200531 16 359 3.2 4.8 0.00 0.00 0.00 44 1025.1
20190420200031 17 359 1.6 6.4 0.00 0.00 0.00 44 1025.1
20190420195531 17 357 3.2 6.4 0.00 0.00 0.00 44 1025.1
20190420195031 17 359 1.6 6.4 0.00 0.00 0.00 43 1025.1
20190420194531 17 1 1.6 6.4 0.00 0.00 0.00 43 1025.1
20190420194031 17 10 1.6 4.8 0.00 0.00 0.00 44 1025.0
20190420193531 17 8 1.6 3.2 0.00 0.00 0.00 44 1025.0
20190420193031 17 10 1.6 4.8 0.00 0.00 0.00 43 1025.0
20190420192531 18 1 1.6 6.4 0.00 0.00 0.00 43 1025.0
20190420192031 18 1 1.6 4.8 0.00 0.00 0.00 43 1025.0
20190420191531 18 345 1.6 6.4 0.00 0.00 0.00 42 1025.0
20190420191031 18 0 1.6 4.8 0.00 0.00 0.00 42 1024.9
20190420190531 18 1 1.6 6.4 0.00 0.00 0.00 42 1024.9
20190420190031 18 1 3.2 8.0 0.00 0.00 0.00 41 1024.9
20190420185531 19 21 3.2 8.0 0.00 0.00 0.00 40 1024.9
20190420185031 19 350 3.2 11.3 0.00 0.00 0.00 40 1024.9
20190420184531 20 0 3.2 4.8 0.00 0.00 0.00 39 1024.8
20190420184031 20 348 3.2 8.0 0.00 0.00 0.00 38 1024.9
20190420183531 20 15 3.2 11.3 0.00 0.00 0.00 37 1024.9
20190420183031 20 351 4.8 12.9 0.00 0.00 0.00 36 1024.8
20190420182531 21 1 4.8 12.9 0.00 0.00 0.00 34 1024.8
20190420182031 21 11 6.4 12.9 0.00 0.00 0.00 32 1024.9
20190420181531 21 343 4.8 12.9 0.00 0.00 0.00 30 1024.8
20190420181031 21 346 4.8 14.5 0.00 0.00 0.00 29 1024.8
20190420180531 21 1 3.2 8.0 0.00 0.00 0.00 29 1024.8
20190420180031 22 359 3.2 12.9 0.00 0.00 0.00 29 1024.8
20190420175531 22 337 1.6 11.3 0.00 0.00 0.00 29 1024.7
20190420175031 22 1 3.2 14.5 0.00 0.00 0.00 28 1024.8
20190420174531 22 330 3.2 9.7 0.00 0.00 0.00 28 1024.8
20190420174031 22 32 3.2 8.0 0.00 0.00 0.00 28 1024.8
20190420173531 22 13 3.2 14.5 0.00 0.00 0.00 28 1024.8
20190420173031 22 0 3.2 11.3 0.00 0.00 0.00 28 1024.7
20190420172531 22 347 3.2 9.7 0.00 0.00 0.00 28 1024.7
20190420172031 22 90 3.2 11.3 0.00 0.00 0.00 27 1024.8
20190420171531 23 338 1.6 12.9 0.00 0.00 0.00 27 1024.8
20190420171031 23 0 3.2 8.0 0.00 0.00 0.00 27 1024.8
20190420170531 23 42 4.8 12.9 0.00 0.00 0.00 28 1024.8
20190420170031 23 11 4.8 17.7 0.00 0.00 0.00 27 1024.8
20190420165531 23 354 4.8 11.3 0.00 0.00 0.00 28 1024.8
20190420165031 23 359 3.2 11.3 0.00 0.00 0.00 27 1024.9
20190420164531 23 281 6.4 11.3 0.00 0.00 0.00 28 1024.9
20190420164031 24 357 8.0 17.7 0.00 0.00 0.00 26 1024.9
20190420163531 24 30 6.4 17.7 0.00 0.00 0.00 26 1025.0
20190420163031 24 359 4.8 14.5 0.00 0.00 0.00 26 1025.1
20190420162531 24 359 3.2 14.5 0.00 0.00 0.00 26 1025.1
20190420162031 24 4 4.8 9.7 0.00 0.00 0.00 26 1025.2
20190420161531 24 5 6.4 17.7 0.00 0.00 0.00 26 1025.2
20190420161031 24 340 3.2 9.7 0.00 0.00 0.00 25 1025.2
20190420160531 25 354 3.2 8.0 0.00 0.00 0.00 26 1025.2
20190420160031 25 1 3.2 8.0 0.00 0.00 0.00 25 1025.3
20190420155531 25 352 4.8 6.4 0.00 0.00 0.00 25 1025.3
20190420155031 25 359 4.8 12.9 0.00 0.00 0.00 24 1025.4
20190420154531 25 1 4.8 12.9 0.00 0.00 0.00 23 1025.4
20190420154031 25 359 4.8 14.5 0.00 0.00 0.00 24 1025.4
20190420153531 25 352 4.8 14.5 0.00 0.00 0.00 25 1025.3
20190420153031 25 359 3.2 12.9 0.00 0.00 0.00 24 1025.4
20190420152531 25 335 3.2 17.7 0.00 0.00 0.00 23 1025.4
20190420152031 25 24 3.2 8.0 0.00 0.00 0.00 24 1025.4
20190420151531 25 105 4.8 9.7 0.00 0.00 0.00 26 1025.4
20190420151031 25 67 3.2 9.7 0.00 0.00 0.00 25 1025.5
20190420150531 25 39 3.2 6.4 0.00 0.00 0.00 23 1025.6
20190420150031 25 173 4.8 8.0 0.00 0.00 0.00 24 1025.6
20190420145531 25 146 4.8 12.9 0.00 0.00 0.00 26 1025.7
20190420145031 25 110 3.2 12.9 0.00 0.00 0.00 25 1025.7
20190420144531 25 91 3.2 8.0 0.00 0.00 0.00 23 1025.8
20190420144031 25 61 3.2 8.0 0.00 0.00 0.00 24 1025.9
20190420143531 25 101 3.2 8.0 0.00 0.00 0.00 24 1026.0
20190420143031 25 356 3.2 8.0 0.00 0.00 0.00 23 1025.9
20190420142531 25 349 3.2 6.4 0.00 0.00 0.00 23 1026.1
20190420142031 25 359 4.8 9.7 0.00 0.00 0.00 22 1026.2